METEOR 2-17 DEB, 28993

Orbit data source: Space-Track

METEOR 2-17 DEB, 28993 is space debris in LEO originally from a launch on Sat, 30 Jan 1988 UTC launched from the Plesetsk Missile And Space Complex (PKMTR). Debris objects in space refer to the collection of defunct objects orbiting the Earth. Examples of debris include non-operational satellites, rocket bodies, and fragments generated from explosions, collisions, or faulty payload assembly.

Loading next visibility...
Identifier
28993, 1988-005H
Orbit
LEO
Country
Flag of CISCIS
Related business
Manufacturer
Unknown
Mission
Spacecraft
Bus & Motor
Unknown
Mass
Unknown
Launch date (UTC)
1988-01-30 (38 years ago)
Launch vehicle
Unknown
Launch site
Plesetsk Missile And Space Complex (PKMTR)
Object type
Payload
Rocket body
Debris
Shape & HBR
Unknown shape, 0.1 m
Radar Cross Section
Small (<0.1 m²)

Expand to show TLE details & history
Last TLE update: 1 week ago

TLE from 1 week ago
0 METEOR 2-17 DEB
1 28993U 88005H   25344.92160626  .00003531  00000-0  24176-2 0  9996
2 28993  82.5269  61.4210 0014659 128.3221 231.9268 13.99330648564016
Epoch: 2025-12-10T22:07Z
TLE epoch observation values (Epoch: 2025-12-10T22:07:06.780Z)
Latitude
-0.00005°
Longitude
9.75775°
Altitude
905.623 km
Speed
7.396 km/s
True Right ascension
04h 05m 41s
True Declination
0° 00' 00"
Sunlit
Object was in full shadow at epoch
Visualization orbit readout
Latitude
Unknown
Longitude
Unknown
Altitude
Unknown
Speed
Unknown
Apparent Right ascension
Unknown
Apparent Declination
Unknown
Sunlit
N/A
Visualization observer readout
Local Sidereal Time
08:15:27
Azimuth
Unknown
Elevation
Unknown
Doppler factor
Unknown
Orbital elements
Apogee altitude
903.905 km
Perigee altitude
882.586 km
Semi-major axis
7,271.383 km
Eccentricity
0.00147
Inclination
82.5269°
RAAN
61.421°
Arg. of periapsis
128.3221°
True anomaly
231.79471°
Mean anomaly
231.9268°
Eccentric anomaly
231.86074°
Mean motion
3.5004 °/min
Orbital period
102.85 mins
BSTAR
0.0024176
Loading maneuver chart data...
Computing Atmospheric mass density...
Loading historical data...
Loading historical data...
Loading historical data...
Loading historical data...
Loading historical data...
Loading historical data...
Loading historical data...

Documentation

Showing up to 5 results
|